Location: Newark
(50.4348°N, 30.5552°E)
Time: 00:10:15
(UTC+00:00)

Vanguard 1 Rocket - Visible Passes

Search period start: 18 January 2020 00:00
Search period end: 28 January 2020 00:00
Orbit: 650 x 4226 km, 34.3° (Epoch: 16 January)

Date Brightness Start Highest point End Pass type
(mag) Time Alt. Az. Time Alt. Az. Time Alt. Az.
18 Jan 12.0 15:55:30 10° W 16:12:16 26° SW 16:30:21 10° S visible
19 Jan 12.0 14:41:39 10° W 14:59:05 33° SSW 15:20:00 10° SSE visible
19 Jan 12.2 17:17:48 10° WSW 17:26:14 13° SW 17:34:49 10° SSW visible
20 Jan 12.2 15:59:16 10° W 16:13:47 21° SW 16:29:42 10° S visible
21 Jan 12.1 14:44:50 10° W 15:00:49 29° SW 15:20:15 10° SSE visible
22 Jan 12.4 16:04:01 10° WSW 16:15:21 16° SW 16:27:45 10° SSW visible
23 Jan 12.3 14:48:24 10° W 15:02:35 23° SW 15:19:50 10° S visible
24 Jan 12.5 16:11:44 10° WSW 16:16:58 11° SW 16:22:29 10° SW visible
25 Jan 12.4 14:52:38 10° WSW 15:04:25 18° SW 15:18:29 10° S visible
27 Jan 12.6 14:58:24 10° WSW 15:06:18 13° SW 15:15:17 10° SSW visible
